PROBA-1 1 26958U 01049B 26104.21057602 .00002034 00000+0 13506-3 0 9996 2 26958 97.9630 110.5147 0054819 340.9197 18.9975 15.07255997333980 CUTE-1 (CO-55) 1 27844U 03031E 26103.75937083 .00000217 00000+0 11299-3 0 9990 2 27844 98.6766 113.1241 0009892 19.9623 340.1941 14.24295359182502 CUBESAT XI-IV (CO-57) 1 27848U 03031J 26103.57507156 .00000185 00000+0 10026-3 0 9999 2 27848 98.6796 112.7063 0010141 37.9126 322.2764 14.23586039182188 APRIZESAT 4 1 35684U 09041D 26104.12730323 .00000520 00000+0 68806-4 0 9992 2 35684 98.1433 178.1704 0043705 167.7140 192.5150 14.83781662901862 APRIZESAT 3 1 35686U 09041F 26103.35875623 .00001507 00000+0 13542-3 0 9993 2 35686 98.1971 253.5181 0060505 281.2637 78.1787 14.96026640906680 PROBA-2 1 36037U 09059B 26104.07227562 .00000133 00000+0 41507-4 0 9993 2 36037 98.2449 288.3143 0014344 116.6132 243.6537 14.54814419872202 APRIZESAT 5 1 37792U 11044E 26103.28234444 .00000557 00000+0 77972-4 0 9993 2 37792 98.2425 34.5025 0051568 210.4923 149.3288 14.80951973789180 APRIZESAT 6 1 37793U 11044F 26104.20691962 .00000434 00000+0 68945-4 0 9993 2 37793 98.2395 13.3935 0041903 291.4699 223.0729 14.76829536787703 PROBA-V 1 39159U 13021A 26103.66771499 .00000052 00000+0 40786-4 0 9990 2 39159 98.3551 85.4745 0003590 338.1315 21.9710 14.23583171671935 APRIZESAT 7 1 39416U 13066A 26103.81602765 .00001118 00000+0 11618-3 0 9996 2 39416 97.7650 57.9905 0037386 65.7573 294.7545 14.91403883671634 APRIZESAT 8 1 39425U 13066K 26104.10575572 .00000629 00000+0 74120-4 0 9998 2 39425 97.8170 52.4960 0047087 135.4374 225.0644 14.87516134670147 BUGSAT-1 (TITA) 1 40014U 14033E 26104.17834741 .00004007 00000+0 21668-3 0 9994 2 40014 98.0409 193.0262 0029095 41.7815 318.5629 15.14963716646143 SAUDISAT 4 1 40016U 14033G 26104.13886595 .00000403 00000+0 60134-4 0 9994 2 40016 97.7486 252.5239 0043432 282.1872 77.4477 14.79451294636601 APRIZESAT 9 1 40018U 14033J 26103.79377440 .00000378 00000+0 63001-4 0 9998 2 40018 97.8953 238.6044 0067198 48.2161 312.4763 14.74143463634079 APRIZESAT 10 1 40019U 14033K 26104.17991701 .00000410 00000+0 71972-4 0 9997 2 40019 97.9544 232.6061 0080144 117.7926 243.1435 14.70821171632841 TECHDEMOSAT-1 (TDS-1) 1 40076U 14037H 26103.53508962 .00004386 00000+0 25771-3 0 9997 2 40076 98.3804 89.4043 0008026 119.6851 240.5177 15.12290071638456 TECHNOSAT 1 42829U 17042E 26104.01218919 .00001268 00000+0 94410-4 0 9991 2 42829 97.4196 264.1574 0016734 316.3988 43.5915 15.04565457477053 FLYING LAPTOP 1 42831U 17042G 26104.18514775 .00001781 00000+0 14446-3 0 9991 2 42831 97.4397 262.3113 0019115 343.8756 16.1858 15.00753411476856 HAWK-A 1 43765U 18099H 26104.14324245 .00003978 00000+0 16511-3 0 9993 2 43765 97.3984 157.2333 0036529 148.9059 211.4351 15.23813975403347 HAWK-B 1 43794U 18099AN 26104.15529484 .00003736 00000+0 16405-3 0 9992 2 43794 97.4034 156.7911 0033183 165.5698 194.6494 15.22060212403290 HAWK-C 1 43799U 18099AT 26103.99910367 .00004948 00000+0 18418-3 0 9994 2 43799 97.3962 157.6959 0042412 150.8907 209.4709 15.27099573404114 SALSAT 1 46495U 20068K 26103.56539140 .00004439 00000+0 16112-3 0 9992 2 46495 97.8865 102.7460 0010532 159.4430 200.7234 15.28855640305482 HAWK-2C 1 47502U 21006CT 26104.10604163 .00003893 00000+0 12106-3 0 9996 2 47502 97.2351 149.7097 0008707 76.7999 283.4215 15.33876235289673 HAWK-2A 1 47505U 21006CW 26104.10909412 .00003886 00000+0 12082-3 0 9999 2 47505 97.2393 150.3525 0008313 80.0136 280.2045 15.33888831289671 HAWK-2B 1 47508U 21006CZ 26104.10619891 .00004385 00000+0 13596-3 0 9997 2 47508 97.2267 148.7877 0008805 77.8425 282.3804 15.33900198289673 HAWK-3B 1 48931U 21059BE 26103.50492084 .00027092 00000+0 28210-3 0 9991 2 48931 97.6711 294.3479 0005493 195.7670 164.3419 15.64531740267720 HAWK-3C 1 48948U 21059BX 26103.50460635 .00025665 00000+0 26734-3 0 9999 2 48948 97.6850 299.9165 0005740 195.8143 164.2937 15.64531367267725 HAWK-3A 1 48957U 21059CG 26103.50450564 .00026349 00000+0 27443-3 0 9997 2 48957 97.6789 297.1743 0005478 195.6230 164.4860 15.64531293267726 HAWK-5C 1 52754U 22057Y 26103.94618326 .00013124 00000+0 24326-3 0 9990 2 52754 97.6508 259.6298 0003888 303.1618 56.9258 15.49115183216394 HAWK-5B 1 52756U 22057AA 26104.13979531 .00010899 00000+0 20245-3 0 9994 2 52756 97.6511 258.1778 0003778 295.1240 64.9618 15.49106595216426 HAWK-5A 1 52757U 22057AB 26104.01038097 .00011705 00000+0 21724-3 0 9995 2 52757 97.6511 258.8742 0004183 299.0916 60.9915 15.49109847216406 HAWK-6B 1 55324U 23011A 26104.03709953 .00002756 00000+0 12520-3 0 9997 2 55324 40.4999 6.0706 0004405 292.5531 67.4812 15.22357104178065 HAWK-6C 1 55326U 23011C 26104.03648929 .00002820 00000+0 12792-3 0 9997 2 55326 40.4988 2.9198 0004590 281.8826 78.1468 15.22357606178072 HAWK-6A 1 55327U 23011D 26104.03651657 .00002793 00000+0 12677-3 0 9991 2 55327 40.4999 4.5384 0004343 281.8677 78.1645 15.22357418178078 HAWK-7A 1 56191U 23054P 26103.95679347 .00003372 00000+0 13115-3 0 9996 2 56191 97.2786 352.9302 0001024 253.0891 107.0236 15.26695816167228 HAWK-7B 1 56193U 23054R 26103.95672950 .00003397 00000+0 13212-3 0 9996 2 56193 97.2815 351.1705 0000361 309.6762 50.4445 15.26696170167226 HAWK-7C 1 56200U 23054Y 26103.62891366 .00003381 00000+0 13150-3 0 9997 2 56200 97.2791 351.6402 0000517 239.7424 120.3764 15.26693201167175